This demonstration page uses our WeatherBlox Daily Observations layout. Learn more.

Left ArrowRight Arrow

39.01783, -85.05884

Hourly Observations for January 6, 2020

Temp ( °F °C ) Dew Point ( °F °C ) Humidity (%) Winds ( mph kmh ) Pressure ( in mb ) Visibility ( mi km ) Precip ( " mm )
12:52 am 00:52 Mostly Clear 39 3.9 29 -1.7 67 67 W 18 30 30.06 1018 10 16 0.00 0.00
1:52 am 01:52 Mostly Clear 37 2.8 28 -2.2 70 70 W 14 22 30.08 1019 10 16 0.00 0.00
2:52 am 02:52 Mostly Cloudy 36 2.2 28 -2.2 73 73 W 15 24 30.10 1019 10 16 0.00 0.00
3:52 am 03:52 Mostly Clear 35 1.7 27 -2.8 72 72 WNW 12 19 30.12 1020 10 16 0.00 0.00
4:52 am 04:52 Mostly Clear 33 0.6 25 -3.9 72 72 WNW 14 22 30.13 1020 10 16 0.00 0.00
5:52 am 05:52 Mostly Clear 31 -0.6 25 -3.9 79 79 WNW 10 17 30.15 1021 10 16 0.00 0.00
6:52 am 06:52 Mostly Clear 30 -1.1 24 -4.4 79 79 WNW 7 11 30.16 1022 10 16 0.00 0.00
7:52 am 07:52 Mostly Clear 29 -1.7 24 -4.4 82 82 WSW 3 6 30.19 1023 10 16 0.00 0.00
8:52 am 08:52 Partly Cloudy 31 -0.6 25 -3.9 79 79 WSW 6 9 30.23 1024 10 16 0.00 0.00
9:52 am 09:52 Mostly Cloudy 34 1.1 26 -3.3 73 73 WNW 8 13 30.24 1024 10 16 0.00 0.00
10:52 am 10:52 Mostly Cloudy 35 1.7 25 -3.9 67 67 W 8 13 30.26 1025 10 16 0.00 0.00
11:52 am 11:52 Mostly Cloudy 39 3.9 26 -3.3 60 60 SW 3 6 30.24 1024 10 16 0.00 0.00
12:52 pm 12:52 Mostly Cloudy 41 5 25 -3.9 53 53 WSW 6 9 30.20 1023 10 16 0.00 0.00
1:52 pm 13:52 Partly Cloudy 44 6.7 21 -6.1 40 40 VRB 3 6 30.18 1022 10 16 0.00 0.00
2:52 pm 14:52 Partly Cloudy 46 7.8 20 -6.7 35 35 Calm 30.16 1021 10 16 0.00 0.00
3:52 pm 15:52 Mostly Sunny 47 8.3 19 -7.2 33 33 Calm 30.15 1021 10 16 0.00 0.00
4:52 pm 16:52 Mostly Sunny 44 6.7 19 -7.2 37 37 Calm 30.15 1021 10 16 0.00 0.00
5:52 pm 17:52 Mostly Clear 42 5.6 17 -8.3 36 36 Calm 30.16 1021 10 16 0.00 0.00
6:52 pm 18:52 Mostly Clear 38 3.3 19 -7.2 46 46 Calm 30.16 1022 10 16 0.00 0.00
7:52 pm 19:52 Partly Cloudy 34 1.1 20 -6.7 56 56 Calm 30.17 1022 10 16 0.00 0.00
8:52 pm 20:52 Partly Cloudy 33 0.6 19 -7.2 56 56 Calm 30.15 1021 10 16 0.00 0.00
9:52 pm 21:52 Mostly Cloudy 34 1.1 22 -5.6 61 61 Calm 30.13 1020 10 16 0.00 0.00
10:52 pm 22:52 Cloudy 34 1.1 20 -6.7 56 56 Calm 30.11 1020 10 16 0.00 0.00
11:52 pm 23:52 Cloudy 34 1.1 21 -6.1 59 59 ENE 3 6 30.09 1019 10 16 0.00 0.00

Powered by AerisWeather